Weather History for Sella Ness, United Kingdom

Change the Weather History Date:

Friday, December 14, 2012

  Actual Average Record
Temperature  
Mean Temperature 34 °F -  
Max Temperature 39 °F 42 °F 66 °F (1998)
Min Temperature 28 °F 37 °F 28 °F (2012)
Degree Days  
Heating Degree Days 32    
Moisture  
Dew Point 30 °F    
Average Humidity 79    
Maximum Humidity 93    
Minimum Humidity 70    
Precipitation  
Precipitation 0.00 in - - ()
Sea Level Pressure  
Sea Level Pressure 29.39 in    
Wind  
Wind Speed 17 mph ()    
Max Wind Speed 43 mph    
Max Gust Speed 56 mph    
Visibility 5.2 miles    
Events Rain , Snow    
Averages and records for this station are not official NWS values.
T = Trace of Precipitation, MM = Missing Value Source: Averaged Metar Reports

Daily Weather History Graph

Daily Weather History Graph

Search for Another Location

Airport:

Trip Planner

Search our weather history database for the weather conditions in past years. The results will help you decide how hot, cold, wet, or windy it might be!

Date:

Astronomy

Dec. 14, 2012 Rise Set
Actual Time 9:05 AM GMT 2:54 PM GMT
Civil Twilight 8:07 AM GMT 3:52 PM GMT
Nautical Twilight 7:09 AM GMT 4:50 PM GMT
Astronomical Twilight 6:17 AM GMT 5:42 PM GMT
Moon 9:42 AM GMT (12/14) 4:47 PM GMT (12/14)
Length of Visible Light 7h 45m
Length of Day
5h 48m
New Moon, 2% of the Moon is Illuminated
Dec 14
New Moon
Dec 20
First Quarter
Dec 28
Full
Jan 5
Last Quarter
Jan 11
New

Hourly Weather History & Observations

Time (GMT) Temp. Windchill Dew Point Humidity Pressure Visibility Wind Dir Wind Speed Gust Speed Precip Events Conditions
12:50 AM 30.2 °F 23.4 °F 24.8 °F 80% 29.56 in 6.2 mi ESE 6.9 mph - N/A   Unknown
1:20 AM 28.4 °F - 24.8 °F 86% 29.56 in 6.2 mi SSE 2.3 mph - N/A   Unknown
1:50 AM 28.4 °F 23.3 °F 24.8 °F 86% 29.56 in 6.2 mi SSE 4.6 mph - N/A   Unknown
2:20 AM 28.4 °F - 24.8 °F 86% 29.53 in 6.2 mi West 2.3 mph - N/A   Unknown
2:50 AM 28.4 °F - 23.0 °F 80% 29.53 in 6.2 mi NNW 2.3 mph - N/A   Unknown
3:20 AM 28.4 °F - 23.0 °F 80% 29.53 in 6.2 mi NW 1.2 mph - N/A   Unknown
3:50 AM 32.0 °F 23.6 °F 26.6 °F 80% 29.50 in 6.2 mi SSE 10.4 mph - N/A   Unknown
4:20 AM 32.0 °F 24.8 °F 26.6 °F 80% 29.50 in 6.2 mi SE 8.1 mph - N/A   Partly Cloudy
4:50 AM 32.0 °F 24.8 °F 26.6 °F 80% 29.50 in 6.2 mi SE 8.1 mph - N/A   Unknown
5:20 AM 35.6 °F 27.1 °F 28.4 °F 75% 29.50 in 6.2 mi SSE 12.7 mph - N/A   Unknown
5:50 AM 35.6 °F 26.2 °F 28.4 °F 75% 29.50 in 6.2 mi SSE 15.0 mph - N/A Rain Light Rain
6:20 AM 35.6 °F 25.9 °F 30.2 °F 81% 29.47 in 5.6 mi SE 16.1 mph - N/A Rain Light Rain
6:50 AM 35.6 °F 27.1 °F 30.2 °F 81% 29.47 in 6.2 mi ESE 12.7 mph - N/A Rain Light Rain
7:20 AM 35.6 °F 25.2 °F 30.2 °F 81% 29.47 in 3.7 mi SE 18.4 mph - N/A Rain Rain Showers
7:50 AM 33.8 °F 22.8 °F 30.2 °F 87% 29.47 in 2.2 mi SSE 18.4 mph - N/A Rain , Snow Rain Showers
8:20 AM 35.6 °F 29.2 °F 30.2 °F 81% 29.44 in 6.2 mi SSE 8.1 mph - N/A Rain Light Rain
8:50 AM 37.4 °F 26.9 °F 30.2 °F 75% 29.44 in 5.6 mi SSE 20.7 mph - N/A   Scattered Clouds
9:20 AM 37.4 °F 28.9 °F 30.2 °F 75% 29.44 in 6.2 mi SSE 13.8 mph - N/A   Partly Cloudy
9:50 AM 37.4 °F 28.2 °F 28.4 °F 70% 29.42 in 6.2 mi SE 16.1 mph - N/A   Scattered Clouds
10:20 AM 37.4 °F 26.6 °F 32.0 °F 81% 29.44 in 6.2 mi SSE 21.9 mph - N/A Rain Rain Showers
10:50 AM 35.6 °F 24.2 °F 30.2 °F 81% 29.42 in 5.0 mi SSE 21.9 mph - N/A Rain Rain Showers
11:20 AM 39.2 °F 28.3 °F 30.2 °F 70% 29.42 in 6.2 mi SSE 25.3 mph - N/A   Scattered Clouds
11:50 AM 39.2 °F 27.8 °F 32.0 °F 75% 29.42 in 6.2 mi SSE 27.6 mph 39.1 mph N/A   Scattered Clouds
12:20 PM 37.4 °F 25.2 °F 30.2 °F 75% 29.42 in 6.2 mi SE 28.8 mph 43.7 mph N/A   Scattered Clouds
12:50 PM 37.4 °F 25.2 °F 30.2 °F 75% 29.42 in 5.6 mi SE 28.8 mph 40.3 mph N/A Rain Rain Showers
1:20 PM 35.6 °F 22.5 °F 30.2 °F 81% 29.39 in 4.3 mi SE 29.9 mph - N/A Rain , Snow Light Rain Showers
1:50 PM 37.4 °F 24.8 °F 32.0 °F 81% 29.39 in 4.3 mi SE 31.1 mph 50.6 mph N/A Rain , Snow Light Rain Showers
2:20 PM 37.4 °F 24.8 °F 30.2 °F 75% 29.36 in 3.7 mi SE 31.1 mph 47.2 mph N/A Rain Rain Showers
2:50 PM 37.4 °F 24.8 °F 30.2 °F 75% 29.36 in 3.1 mi SE 31.1 mph 50.6 mph N/A Rain Rain Showers
3:20 PM 37.4 °F 25.0 °F 30.2 °F 75% 29.33 in 3.1 mi SE 29.9 mph 42.6 mph N/A Rain Rain Showers
3:50 PM 39.2 °F 27.0 °F 30.2 °F 70% 29.33 in 5.0 mi SE 32.2 mph 47.2 mph N/A Rain Rain
4:20 PM 37.4 °F 24.8 °F 30.2 °F 75% 29.33 in 3.1 mi SE 31.1 mph 43.7 mph N/A Rain Rain
4:50 PM 39.2 °F 27.6 °F 32.0 °F 75% 29.30 in 6.2 mi SE 28.8 mph - N/A Rain Light Rain
5:20 PM 37.4 °F 24.4 °F 32.0 °F 81% 29.30 in - SE 33.4 mph 55.2 mph N/A Rain Rain
5:50 PM 39.2 °F 25.8 °F 30.2 °F 70% 29.30 in 5.6 mi ESE 40.3 mph 51.8 mph N/A Rain Rain
6:20 PM 39.2 °F 26.5 °F 30.2 °F 70% 29.30 in 5.0 mi ESE 35.7 mph 56.4 mph N/A   Heavy Drizzle
6:50 PM 37.4 °F 23.3 °F 30.2 °F 75% 29.27 in - ESE 40.3 mph 54.1 mph N/A Rain Rain
7:20 PM 37.4 °F 23.3 °F 32.0 °F 81% 29.27 in - ESE 40.3 mph 51.8 mph N/A Rain Rain
7:50 PM 37.4 °F 23.3 °F 32.0 °F 81% 29.27 in 2.2 mi ESE 40.3 mph 55.2 mph N/A Rain Rain
8:20 PM 37.4 °F 23.5 °F 32.0 °F 81% 29.24 in - ESE 39.1 mph 50.6 mph N/A Rain Heavy Rain
8:50 PM 37.4 °F 23.8 °F 32.0 °F 81% 29.24 in - ESE 36.8 mph 51.8 mph N/A Rain Rain
9:20 PM 37.4 °F 23.0 °F 30.2 °F 75% 29.24 in - ESE 42.6 mph 54.1 mph N/A   Drizzle
9:50 PM 37.4 °F 23.3 °F 32.0 °F 81% 29.24 in 3.1 mi ESE 40.3 mph 55.2 mph N/A   Drizzle
10:20 PM 35.6 °F 20.6 °F 32.0 °F 87% 29.24 in 1.6 mi ESE 41.4 mph 56.4 mph N/A Rain Rain
10:50 PM 35.6 °F 21.0 °F 32.0 °F 87% 29.24 in - ESE 39.1 mph 56.4 mph N/A   Heavy Drizzle
11:20 PM 33.8 °F 18.5 °F 32.0 °F 93% 29.21 in - ESE 39.1 mph 50.6 mph N/A Rain Rain
11:50 PM 35.6 °F 20.6 °F 32.0 °F 87% 29.21 in 6.2 mi ESE 41.4 mph - N/A   Drizzle